| time (UTC) | temp F | wind direction | speed knots | gust knots | rain 1hr in | rain 24hr in | rain mn in | humidity % | barometer mb |
| 20260901150049 | 66 | 258 | 6.1 | 12.2 | 0.00 | 0.00 | 0.00 | 82 | 1009.8 |
| 20260901144552 | 65 | 270 | 7.0 | 12.2 | 0.00 | 0.00 | 0.00 | 83 | 1009.8 |
| 20260901143049 | 64 | 252 | 5.2 | 12.2 | 0.00 | 0.00 | 0.00 | 84 | 1009.5 |
| 20260901141552 | 63 | 256 | 6.1 | 12.2 | 0.00 | 0.00 | 0.00 | 86 | 1009.6 |
| 20260901140049 | 62 | 275 | 6.1 | 12.2 | 0.00 | 0.00 | 0.00 | 87 | 1009.3 |
| 20260901134549 | 61 | 244 | 5.2 | 13.0 | 0.00 | 0.00 | 0.00 | 88 | 1009.3 |
| 20260901133049 | 60 | 238 | 4.3 | 11.3 | 0.00 | 0.00 | 0.00 | 90 | 1009.3 |
| 20260901131552 | 59 | 226 | 3.5 | 10.4 | 0.00 | 0.00 | 0.00 | 91 | 1009.2 |
| 20260901130059 | 59 | 220 | 3.5 | 7.8 | 0.00 | 0.00 | 0.00 | 92 | 1009.0 |
| 20260901124549 | 58 | 229 | 3.5 | 8.7 | 0.00 | 0.00 | 0.00 | 92 | 1008.8 |
| 20260901123048 | 57 | 221 | 3.5 | 9.6 | 0.00 | 0.00 | 0.00 | 93 | 1008.6 |
| 20260901121551 | 57 | 215 | 3.5 | 7.0 | 0.00 | 0.00 | 0.00 | 93 | 1008.5 |
| 20260901120047 | 56 | 196 | 4.3 | 10.4 | 0.00 | 0.00 | 0.00 | 93 | 1008.4 |
| 20260901114622 | 56 | 211 | 4.3 | 9.6 | 0.00 | 0.00 | 0.00 | 93 | 1008.2 |
| 20260901113054 | 57 | 196 | 2.6 | 5.2 | 0.00 | 0.00 | 0.00 | 92 | 1008.1 |
| 20260901111552 | 57 | 237 | 1.7 | 5.2 | 0.00 | 0.00 | 0.00 | 92 | 1007.8 |
| 20260901110051 | 57 | 175 | 1.7 | 6.1 | 0.00 | 0.00 | 0.00 | 91 | 1007.9 |
| 20260901104557 | 57 | 264 | 1.7 | 6.1 | 0.00 | 0.00 | 0.00 | 91 | 1007.9 |
| 20260901103051 | 57 | 240 | 2.6 | 9.6 | 0.00 | 0.00 | 0.00 | 91 | 1007.9 |
| 20260901101553 | 57 | 250 | 2.6 | 7.8 | 0.00 | 0.00 | 0.00 | 91 | 1008.0 |
| 20260901100056 | 57 | 248 | 4.3 | 8.7 | 0.00 | 0.00 | 0.00 | 91 | 1007.6 |
| 20260901094550 | 57 | 236 | 1.7 | 7.0 | 0.00 | 0.01 | 0.00 | 91 | 1007.8 |
| 20260901093059 | 57 | 264 | 4.3 | 9.6 | 0.00 | 0.01 | 0.00 | 90 | 1007.6 |
| 20260901091549 | 58 | 226 | 3.5 | 8.7 | 0.00 | 0.01 | 0.00 | 90 | 1007.6 |
| 20260901090051 | 58 | 242 | 4.3 | 9.6 | 0.00 | 0.01 | 0.00 | 91 | 1007.5 |
| 20260901084604 | 58 | 247 | 4.3 | 8.7 | 0.00 | 0.01 | 0.00 | 91 | 1007.6 |
| 20260901083050 | 58 | 251 | 2.6 | 10.4 | 0.00 | 0.01 | 0.00 | 91 | 1007.6 |
| 20260901081548 | 58 | 194 | 1.7 | 7.0 | 0.00 | 0.01 | 0.00 | 90 | 1007.5 |
| 20260901080050 | 58 | 248 | 3.5 | 8.7 | 0.00 | 0.01 | 0.00 | 90 | 1007.7 |
| 20260901074548 | 59 | 207 | 3.5 | 7.8 | 0.00 | 0.12 | 0.00 | 90 | 1007.7 |
| 20260901073100 | 59 | 243 | 4.3 | 8.7 | 0.00 | 0.12 | 0.00 | 90 | 1007.4 |
| 20260901071549 | 58 | 201 | 2.6 | 6.1 | 0.00 | 0.12 | 0.00 | 91 | 1007.4 |
| 20260901064545 | 57 | 259 | 1.7 | 4.3 | 0.00 | 0.45 | 0.00 | 90 | 1007.4 |
| 20260901063053 | 58 | 217 | 1.7 | 4.3 | 0.00 | 0.45 | 0.00 | 90 | 1007.4 |
| 20260901061551 | 58 | 241 | 2.6 | 7.0 | 0.00 | 0.45 | 0.00 | 89 | 1007.2 |
| 20260901060049 | 58 | 229 | 1.7 | 5.2 | 0.00 | 0.45 | 0.00 | 89 | 1007.2 |
| 20260901054559 | 58 | 198 | 1.7 | 6.1 | 0.00 | 0.45 | 0.00 | 88 | 1007.0 |
| 20260901053054 | 58 | 209 | 2.6 | 6.1 | 0.00 | 0.45 | 0.00 | 88 | 1006.9 |
| 20260901051549 | 59 | 250 | 2.6 | 6.1 | 0.00 | 0.45 | 0.00 | 87 | 1006.8 |
| 20260901050055 | 59 | 231 | 1.7 | 7.0 | 0.00 | 0.45 | 0.00 | 86 | 1006.6 |
| 20260901044557 | 59 | 244 | 1.7 | 6.1 | 0.00 | 0.45 | 0.45 | 85 | 1006.6 |
| 20260901043051 | 59 | 271 | 2.6 | 6.1 | 0.00 | 0.45 | 0.45 | 84 | 1006.5 |
| 20260901041550 | 59 | 260 | 1.7 | 4.3 | 0.00 | 0.45 | 0.45 | 82 | 1006.4 |
| 20260901040051 | 59 | 242 | 1.7 | 7.0 | 0.00 | 0.45 | 0.45 | 82 | 1006.3 |
| 20260901034552 | 60 | 209 | 0.9 | 4.3 | 0.00 | 0.46 | 0.45 | 80 | 1006.4 |
| 20260901033102 | 61 | 227 | 2.6 | 7.8 | 0.00 | 0.46 | 0.45 | 78 | 1006.3 |
| 20260901031548 | 62 | 226 | 2.6 | 9.6 | 0.00 | 0.46 | 0.45 | 76 | 1006.1 |
| 20260901024552 | 63 | 207 | 2.6 | 10.4 | 0.00 | 0.46 | 0.45 | 75 | 1006.0 |
| 20260901023051 | 64 | 223 | 5.2 | 12.2 | 0.00 | 0.46 | 0.45 | 74 | 1006.0 |
| 20260901021600 | 64 | 236 | 7.0 | 13.9 | 0.00 | 0.46 | 0.45 | 74 | 1005.8 |
| 20260901020057 | 65 | 257 | 5.2 | 10.4 | 0.00 | 0.46 | 0.45 | 75 | 1005.7 |
| 20260901014554 | 66 | 254 | 7.8 | 17.4 | 0.00 | 0.46 | 0.45 | 72 | 1005.2 |
| 20260901013055 | 67 | 153 | 9.6 | 15.6 | 0.00 | 0.46 | 0.45 | 73 | 1004.7 |
| 20260901011615 | 68 | 238 | 8.7 | 22.6 | 0.00 | 0.46 | 0.45 | 73 | 1004.5 |
| 20260901010056 | 69 | 224 | 10.4 | 20.0 | 0.00 | 0.46 | 0.45 | 69 | 1004.1 |
| 20260901004554 | 70 | 205 | 13.9 | 24.3 | 0.00 | 0.46 | 0.45 | 68 | 1003.8 |
| 20260901003052 | 71 | 246 | 9.6 | 23.5 | 0.00 | 0.46 | 0.45 | 68 | 1003.7 |
| 20260901001548 | 73 | 241 | 11.3 | 21.7 | 0.00 | 0.46 | 0.45 | 60 | 1003.3 |
| 20260901000048 | 75 | 252 | 11.3 | 26.9 | 0.00 | 0.46 | 0.45 | 57 | 1003.0 |
| 20260831234558 | 75 | 224 | 7.0 | 13.9 | 0.00 | 0.46 | 0.45 | 56 | 1002.7 |
| 20260831233052 | 76 | 206 | 7.0 | 18.2 | 0.00 | 0.46 | 0.45 | 52 | 1002.4 |
| 20260831231549 | 77 | 189 | 7.0 | 18.2 | 0.00 | 0.46 | 0.45 | 49 | 1002.3 |
| 20260831224554 | 77 | 188 | 11.3 | 26.1 | 0.00 | 0.46 | 0.45 | 48 | 1002.0 |
| 20260831223056 | 77 | 197 | 13.0 | 23.5 | 0.00 | 0.46 | 0.45 | 48 | 1002.2 |
| 20260831221603 | 77 | 208 | 14.8 | 26.1 | 0.00 | 0.46 | 0.45 | 47 | 1002.0 |
| 20260831220048 | 77 | 191 | 15.6 | 26.9 | 0.00 | 0.46 | 0.45 | 48 | 1002.1 |
| 20260831214559 | 77 | 177 | 15.6 | 23.5 | 0.00 | 0.46 | 0.45 | 48 | 1002.2 |
| 20260831213050 | 77 | 210 | 11.3 | 26.1 | 0.00 | 0.46 | 0.45 | 48 | 1002.4 |
| 20260831211557 | 77 | 217 | 13.9 | 26.1 | 0.00 | 0.46 | 0.45 | 46 | 1002.6 |
| 20260831210053 | 77 | 222 | 14.8 | 33.0 | 0.00 | 0.46 | 0.45 | 45 | 1002.7 |
| 20260831204550 | 78 | 184 | 13.0 | 26.9 | 0.00 | 0.46 | 0.45 | 43 | 1002.6 |
| 20260831203058 | 78 | 205 | 18.2 | 26.9 | 0.00 | 0.46 | 0.45 | 42 | 1002.5 |
| 20260831201553 | 77 | 200 | 12.2 | 25.2 | 0.00 | 0.46 | 0.45 | 45 | 1002.7 |
| 20260831200053 | 77 | 180 | 13.9 | 31.3 | 0.00 | 0.46 | 0.45 | 46 | 1002.9 |
| 20260831194604 | 78 | 181 | 19.1 | 31.3 | 0.00 | 0.46 | 0.45 | 41 | 1003.1 |
| 20260831193050 | 79 | 192 | 12.2 | 33.0 | 0.00 | 0.46 | 0.45 | 45 | 1003.2 |
| 20260831191548 | 77 | 189 | 20.9 | 35.6 | 0.00 | 0.46 | 0.45 | 49 | 1003.4 |
| 20260831190059 | 77 | 178 | 18.2 | 32.2 | 0.00 | 0.46 | 0.45 | 50 | 1003.7 |
| 20260831184553 | 77 | 188 | 22.6 | 37.4 | 0.00 | 0.46 | 0.45 | 47 | 1004.2 |
| 20260831183051 | 77 | 200 | 15.6 | 31.3 | 0.00 | 0.46 | 0.45 | 48 | 1004.5 |
| 20260831181554 | 78 | 188 | 16.5 | 27.8 | 0.00 | 0.46 | 0.45 | 48 | 1004.9 |
| 20260831174554 | 76 | 185 | 17.4 | 30.4 | 0.00 | 0.46 | 0.45 | 49 | 1005.6 |
| 20260831173056 | 75 | 184 | 14.8 | 26.9 | 0.00 | 0.46 | 0.45 | 59 | 1005.8 |
| 20260831171558 | 74 | 163 | 12.2 | 21.7 | 0.00 | 0.46 | 0.45 | 62 | 1006.0 |
| 20260831170055 | 73 | 182 | 11.3 | 21.7 | 0.00 | 0.46 | 0.45 | 64 | 1006.2 |
| 20260831164552 | 72 | 190 | 11.3 | 19.1 | 0.00 | 0.46 | 0.45 | 71 | 1006.4 |
| 20260831163100 | 71 | 209 | 9.6 | 17.4 | 0.00 | 0.46 | 0.45 | 71 | 1006.5 |
| 20260831161550 | 70 | 178 | 11.3 | 20.9 | 0.00 | 0.46 | 0.45 | 73 | 1006.8 |
| 20260831160103 | 69 | 175 | 10.4 | 13.9 | 0.00 | 0.46 | 0.45 | 74 | 1006.7 |
| 20260831154619 | 69 | 196 | 8.7 | 13.0 | 0.00 | 0.46 | 0.45 | 75 | 1006.7 |
| 20260831153050 | 68 | 213 | 5.2 | 10.4 | 0.00 | 0.45 | 0.44 | 78 | 1006.7 |
| 20260831151559 | 67 | 202 | 7.0 | 11.3 | 0.00 | 0.45 | 0.44 | 81 | 1006.6 |